Back to catalog

EUTE 28A

EB 1

AliveCommunicationsGEO
NORAD 26719·PAYLOAD·🇪🇺 EU

Launched Mar 8, 2001 from Guiana Space Centre

Loading…

TLE

FreshSource: Space-Track

Epoch: Sep 14, 2026, 13:56 UTC

1 26719U 01011A   26257.58073361 -.00000246  00000-0  00000-0 0  9996
2 26719   7.6019  66.3167 0002694 295.5866   4.9714  0.98795010 93265

Track EUTE 28A in real time with AllMySat

Download on the App Store